DNA215 LRBC-LIPE

Flight info

Callsign DNA215
Flight time 1h 48m
Altitude 35000
Route REDKU DCT SB095 DCT DEGET DCT EBORO DCT VEBAL DCT NEMEK DCT ROTAR DCT CHI M859 LUMAV
Aircraft A320/M-SDE3FGHIRWY/LB1

Departure

Time 2026-04-15 14:02
Airport Bacău George Enescu International Airport (LRBC)

Arrival

Time 2026-04-15 15:51
Airport Bologna Guglielmo Marconi Airport (LIPE)
Time Latitude Longitude Altitude Speed Heading
2026-04-15 13:39 46.53156 26.90996 615 ft 0 kts 74°
2026-04-15 13:53 46.53156 26.90994 614 ft 2 kts 74°
2026-04-15 13:53 46.53151 26.90971 626 ft 2 kts 71°
2026-04-15 13:53 46.53146 26.90949 617 ft 2 kts 66°
2026-04-15 13:54 46.53139 26.90927 629 ft 2 kts 58°
2026-04-15 13:54 46.53129 26.90908 629 ft 2 kts 38°
2026-04-15 13:54 46.53114 26.90897 628 ft 2 kts 356°
2026-04-15 13:54 46.53104 26.90899 624 ft 1 kts 345°
2026-04-15 13:55 46.53103 26.90899 624 ft 0 kts 345°
2026-04-15 13:59 46.53108 26.90897 626 ft 4 kts 345°
2026-04-15 13:59 46.53159 26.90877 621 ft 11 kts 345°
2026-04-15 14:00 46.53241 26.90846 620 ft 11 kts 345°
2026-04-15 14:00 46.53281 26.90828 620 ft 5 kts 336°
2026-04-15 14:00 46.53300 26.90774 615 ft 7 kts 269°
2026-04-15 14:00 46.53283 26.90676 624 ft 8 kts 255°
2026-04-15 14:01 46.53236 26.90604 620 ft 1 kts 165°
2026-04-15 14:01 46.53176 26.90628 620 ft 34 kts 165°
2026-04-15 14:01 46.52653 26.90835 626 ft 117 kts 165°
2026-04-15 14:02 46.51698 26.91207 899 ft 152 kts 164°
2026-04-15 14:02 46.50632 26.91628 1589 ft 169 kts 162°
2026-04-15 14:02 46.49456 26.92133 2210 ft 180 kts 161°
2026-04-15 14:02 46.48243 26.92701 2857 ft 187 kts 160°
2026-04-15 14:03 46.46954 26.93274 3330 ft 204 kts 163°
2026-04-15 14:03 46.45480 26.93790 3713 ft 230 kts 171°
2026-04-15 14:03 46.43824 26.93532 4100 ft 255 kts 204°
2026-04-15 14:03 46.42465 26.91828 4693 ft 267 kts 242°
2026-04-15 14:04 46.42026 26.89279 5493 ft 268 kts 277°
2026-04-15 14:04 46.42527 26.86708 6454 ft 266 kts 292°
2026-04-15 14:04 46.43180 26.84191 7346 ft 268 kts 292°
2026-04-15 14:04 46.43839 26.81654 8167 ft 271 kts 291°
2026-04-15 14:05 46.44504 26.79080 8963 ft 274 kts 291°
2026-04-15 14:05 46.45175 26.76479 9739 ft 277 kts 291°
2026-04-15 14:05 46.45852 26.73847 10506 ft 281 kts 291°
2026-04-15 14:05 46.46559 26.71089 10781 ft 303 kts 291°
2026-04-15 14:06 46.47315 26.68126 11074 ft 320 kts 290°
2026-04-15 14:06 46.48083 26.65109 11683 ft 326 kts 290°
2026-04-15 14:06 46.48871 26.62008 12360 ft 329 kts 290°
2026-04-15 14:06 46.49667 26.58876 13046 ft 332 kts 290°
2026-04-15 14:07 46.50419 26.55686 13720 ft 336 kts 283°
2026-04-15 14:07 46.50674 26.52306 14335 ft 340 kts 270°
2026-04-15 14:07 46.50647 26.48861 14940 ft 343 kts 270°
2026-04-15 14:07 46.50620 26.45393 15534 ft 345 kts 270°
2026-04-15 14:08 46.50594 26.41890 16138 ft 347 kts 270°
2026-04-15 14:08 46.50570 26.38369 16726 ft 350 kts 270°
2026-04-15 14:08 46.50547 26.34873 17352 ft 352 kts 270°
2026-04-15 14:08 46.50523 26.31313 17979 ft 355 kts 270°
2026-04-15 14:09 46.50497 26.27716 18570 ft 357 kts 270°
2026-04-15 14:09 46.50473 26.24100 19124 ft 360 kts 270°
2026-04-15 14:09 46.50447 26.20461 19672 ft 362 kts 270°
2026-04-15 14:09 46.50416 26.16789 20227 ft 365 kts 270°
2026-04-15 14:10 46.50385 26.13098 20781 ft 367 kts 270°
2026-04-15 14:10 46.50349 26.09378 21317 ft 370 kts 270°
2026-04-15 14:10 46.50311 26.05630 21818 ft 373 kts 270°
2026-04-15 14:10 46.50274 26.01851 22342 ft 375 kts 270°
2026-04-15 14:11 46.50235 25.98053 22861 ft 378 kts 270°
2026-04-15 14:11 46.50197 25.94279 23375 ft 381 kts 270°
2026-04-15 14:11 46.50157 25.90422 23834 ft 383 kts 270°
2026-04-15 14:11 46.50116 25.86619 24251 ft 385 kts 269°
2026-04-15 14:12 46.50074 25.82797 24671 ft 387 kts 269°
2026-04-15 14:12 46.50028 25.78963 25083 ft 389 kts 269°
2026-04-15 14:12 46.49981 25.75194 25486 ft 390 kts 269°
2026-04-15 14:12 46.49935 25.71319 25885 ft 392 kts 269°
2026-04-15 14:13 46.49887 25.67437 26272 ft 394 kts 270°
2026-04-15 14:13 46.49837 25.63461 26669 ft 395 kts 270°
2026-04-15 14:13 46.49785 25.59526 27063 ft 396 kts 270°
2026-04-15 14:13 46.49733 25.55516 27430 ft 398 kts 270°
2026-04-15 14:14 46.49679 25.51586 27799 ft 400 kts 270°
2026-04-15 14:14 46.49622 25.47535 28191 ft 401 kts 270°
2026-04-15 14:14 46.49559 25.43477 28575 ft 403 kts 270°
2026-04-15 14:14 46.49496 25.39402 28938 ft 405 kts 270°
2026-04-15 14:15 46.49435 25.35315 29306 ft 406 kts 270°
2026-04-15 14:15 46.49373 25.31207 29674 ft 408 kts 270°
2026-04-15 14:15 46.49311 25.27088 30034 ft 409 kts 270°
2026-04-15 14:15 46.49244 25.23005 30401 ft 410 kts 270°
2026-04-15 14:16 46.49171 25.18884 30836 ft 408 kts 270°
2026-04-15 14:16 46.49096 25.14782 31269 ft 407 kts 269°
2026-04-15 14:16 46.49022 25.10682 31684 ft 406 kts 269°
2026-04-15 14:16 46.48948 25.06596 32103 ft 405 kts 269°
2026-04-15 14:17 46.48877 25.02518 32530 ft 404 kts 269°
2026-04-15 14:17 46.48806 24.98453 32955 ft 403 kts 269°
2026-04-15 14:17 46.48735 24.94397 33372 ft 402 kts 269°
2026-04-15 14:17 46.48659 24.90351 33789 ft 401 kts 269°
2026-04-15 14:18 46.48578 24.86309 34187 ft 400 kts 269°
2026-04-15 14:18 46.48493 24.82272 34508 ft 400 kts 269°
2026-04-15 14:18 46.48409 24.78238 34807 ft 400 kts 269°
2026-04-15 14:18 46.48325 24.74206 35084 ft 400 kts 269°
2026-04-15 14:19 46.48241 24.70170 35350 ft 401 kts 269°
2026-04-15 14:19 46.48153 24.66122 35610 ft 401 kts 269°
2026-04-15 14:19 46.48065 24.62130 35863 ft 402 kts 268°
2026-04-15 14:19 46.47976 24.58080 36076 ft 403 kts 268°
2026-04-15 14:20 46.47886 24.53997 36137 ft 407 kts 268°
2026-04-15 14:20 46.47695 24.45662 36139 ft 420 kts 268°
2026-04-15 14:21 46.47495 24.37100 36141 ft 430 kts 268°
2026-04-15 14:21 46.47279 24.28359 36137 ft 436 kts 268°
2026-04-15 14:22 46.47056 24.19561 36133 ft 437 kts 268°
2026-04-15 14:22 46.46829 24.10821 36135 ft 437 kts 268°
2026-04-15 14:23 46.46593 24.02019 36131 ft 437 kts 268°
2026-04-15 14:23 46.46548 23.93206 36135 ft 437 kts 272°
2026-04-15 14:24 46.46821 23.84401 36143 ft 437 kts 273°
2026-04-15 14:24 46.47098 23.75644 36146 ft 438 kts 272°
2026-04-15 14:25 46.47292 23.66802 36155 ft 438 kts 271°
2026-04-15 14:25 46.47438 23.57993 36169 ft 436 kts 271°
2026-04-15 14:26 46.47582 23.49224 36173 ft 434 kts 271°
2026-04-15 14:26 46.47732 23.40546 36170 ft 433 kts 271°
2026-04-15 14:27 46.47880 23.31828 36167 ft 432 kts 271°
2026-04-15 14:27 46.48023 23.23123 36164 ft 431 kts 271°
2026-04-15 14:28 46.48153 23.14414 36166 ft 431 kts 271°
2026-04-15 14:28 46.48270 23.05771 36166 ft 432 kts 271°
2026-04-15 14:29 46.48385 22.97057 36168 ft 432 kts 271°
2026-04-15 14:29 46.48495 22.88361 36160 ft 431 kts 271°
2026-04-15 14:30 46.48600 22.79660 36161 ft 431 kts 271°
2026-04-15 14:30 46.48703 22.71011 36162 ft 431 kts 271°
2026-04-15 14:31 46.48795 22.62307 36156 ft 431 kts 271°
2026-04-15 14:31 46.48874 22.53606 36153 ft 431 kts 271°
2026-04-15 14:32 46.48956 22.44904 36151 ft 431 kts 271°
2026-04-15 14:32 46.49028 22.36265 36154 ft 431 kts 270°
2026-04-15 14:33 46.49096 22.27566 36153 ft 431 kts 270°
2026-04-15 14:33 46.49155 22.18872 36148 ft 431 kts 270°
2026-04-15 14:34 46.49203 22.10179 36152 ft 431 kts 270°
2026-04-15 14:34 46.49251 22.01533 36149 ft 431 kts 270°
2026-04-15 14:35 46.49289 21.92839 36149 ft 431 kts 270°
2026-04-15 14:35 46.49319 21.84130 36152 ft 431 kts 270°
2026-04-15 14:36 46.49343 21.75433 36153 ft 431 kts 270°
2026-04-15 14:36 46.49363 21.66737 36152 ft 431 kts 270°
2026-04-15 14:37 46.49376 21.58082 36155 ft 432 kts 270°
2026-04-15 14:37 46.49384 21.49371 36158 ft 432 kts 270°
2026-04-15 14:38 46.49379 21.40661 36161 ft 432 kts 269°
2026-04-15 14:38 46.48644 21.32008 36165 ft 432 kts 262°
2026-04-15 14:39 46.47750 21.23438 36167 ft 433 kts 262°
2026-04-15 14:39 46.46839 21.14807 36170 ft 433 kts 262°
2026-04-15 14:40 46.45923 21.06176 36172 ft 433 kts 262°
2026-04-15 14:40 46.44998 20.97543 36170 ft 433 kts 261°
2026-04-15 14:41 46.44058 20.88908 36173 ft 434 kts 261°
2026-04-15 14:41 46.43123 20.80330 36177 ft 434 kts 261°
2026-04-15 14:42 46.42182 20.71695 36177 ft 434 kts 261°
2026-04-15 14:42 46.41231 20.63062 36181 ft 434 kts 261°
2026-04-15 14:43 46.40270 20.54422 36177 ft 434 kts 261°
2026-04-15 14:43 46.39304 20.45799 36183 ft 434 kts 261°
2026-04-15 14:44 46.38339 20.37225 36182 ft 434 kts 261°
2026-04-15 14:44 46.37364 20.28604 36181 ft 434 kts 261°
2026-04-15 14:45 46.36372 20.19982 36186 ft 434 kts 261°
2026-04-15 14:45 46.35379 20.11419 36187 ft 434 kts 261°
2026-04-15 14:46 46.34384 20.02807 36191 ft 434 kts 261°
2026-04-15 14:46 46.33378 19.94193 36188 ft 434 kts 261°
2026-04-15 14:47 46.32364 19.85587 36192 ft 434 kts 261°
2026-04-15 14:47 46.31355 19.77047 36202 ft 434 kts 261°
2026-04-15 14:48 46.30330 19.68428 36202 ft 434 kts 261°
2026-04-15 14:48 46.29298 19.59830 36202 ft 434 kts 261°
2026-04-15 14:49 46.28256 19.51235 36196 ft 434 kts 260°
2026-04-15 14:49 46.27218 19.42691 36193 ft 434 kts 260°
2026-04-15 14:50 46.26173 19.34105 36197 ft 434 kts 260°
2026-04-15 14:50 46.25116 19.25505 36190 ft 434 kts 260°
2026-04-15 14:51 46.24051 19.16925 36191 ft 434 kts 260°
2026-04-15 14:51 46.22985 19.08402 36191 ft 434 kts 260°
2026-04-15 14:52 46.21911 18.99826 36198 ft 434 kts 260°
2026-04-15 14:52 46.20835 18.91243 36197 ft 434 kts 260°
2026-04-15 14:53 46.19748 18.82675 36193 ft 434 kts 260°
2026-04-15 14:53 46.18651 18.74169 36185 ft 434 kts 260°
2026-04-15 14:54 46.17550 18.65615 36190 ft 434 kts 260°
2026-04-15 14:54 46.16446 18.57054 36181 ft 434 kts 259°
2026-04-15 14:55 46.15334 18.48507 36185 ft 434 kts 259°
2026-04-15 14:55 46.14212 18.39960 36190 ft 434 kts 259°
2026-04-15 14:56 46.13088 18.31473 36186 ft 434 kts 259°
2026-04-15 14:56 46.11960 18.22936 36177 ft 434 kts 259°
2026-04-15 14:57 46.10823 18.14394 36178 ft 434 kts 259°
2026-04-15 14:57 46.09674 18.05853 36183 ft 434 kts 259°
2026-04-15 14:58 46.08525 17.97366 36185 ft 434 kts 259°
2026-04-15 14:58 46.07366 17.88829 36175 ft 435 kts 259°
2026-04-15 14:59 46.06197 17.80285 36180 ft 435 kts 259°
2026-04-15 14:59 46.05024 17.71752 36180 ft 435 kts 259°
2026-04-15 15:00 46.03858 17.63261 36177 ft 435 kts 259°
2026-04-15 15:00 46.02669 17.54724 36171 ft 435 kts 259°
2026-04-15 15:01 46.01469 17.46187 36174 ft 436 kts 259°
2026-04-15 15:01 46.00270 17.37647 36173 ft 436 kts 259°
2026-04-15 15:02 45.99044 17.29108 36173 ft 436 kts 257°
2026-04-15 15:02 45.97516 17.20732 36182 ft 437 kts 254°
2026-04-15 15:03 45.95759 17.12378 36176 ft 437 kts 253°
2026-04-15 15:03 45.94006 17.04015 36179 ft 437 kts 254°
2026-04-15 15:04 45.92314 16.95624 36178 ft 437 kts 255°
2026-04-15 15:04 45.90648 16.87291 36178 ft 437 kts 255°
2026-04-15 15:05 45.88953 16.78906 36180 ft 438 kts 254°
2026-04-15 15:05 45.87235 16.70521 36180 ft 438 kts 254°
2026-04-15 15:06 45.84651 16.57951 36178 ft 438 kts 254°
2026-04-15 15:06 45.82923 16.49558 36188 ft 439 kts 254°
2026-04-15 15:07 45.81205 16.41233 36189 ft 439 kts 254°
2026-04-15 15:07 45.79472 16.32845 36198 ft 439 kts 254°
2026-04-15 15:08 45.77725 16.24465 36203 ft 439 kts 254°
2026-04-15 15:08 45.75963 16.16086 36203 ft 439 kts 254°
2026-04-15 15:09 45.74209 16.07766 36204 ft 440 kts 254°
2026-04-15 15:09 45.72439 15.99388 36203 ft 440 kts 254°
2026-04-15 15:10 45.70665 15.91013 36201 ft 440 kts 254°
2026-04-15 15:10 45.68885 15.82632 36200 ft 440 kts 254°
2026-04-15 15:11 45.67107 15.74312 36199 ft 441 kts 253°
2026-04-15 15:11 45.65305 15.65939 36196 ft 441 kts 253°
2026-04-15 15:12 45.63497 15.57566 36200 ft 441 kts 253°
2026-04-15 15:12 45.61688 15.49191 36201 ft 441 kts 253°
2026-04-15 15:13 45.59871 15.40821 36200 ft 442 kts 253°
2026-04-15 15:13 45.58068 15.32550 36186 ft 432 kts 253°
2026-04-15 15:14 45.56751 15.24136 36194 ft 439 kts 261°
2026-04-15 15:14 45.55678 15.15520 36192 ft 441 kts 260°
2026-04-15 15:15 45.54589 15.06917 36193 ft 442 kts 260°
2026-04-15 15:15 45.53488 14.98279 36193 ft 442 kts 260°
2026-04-15 15:16 45.52393 14.89701 36191 ft 443 kts 260°
2026-04-15 15:16 45.51286 14.81074 36184 ft 443 kts 260°
2026-04-15 15:17 45.50173 14.72417 36171 ft 444 kts 260°
2026-04-15 15:17 45.49037 14.63764 36164 ft 445 kts 260°
2026-04-15 15:18 45.47898 14.55084 36154 ft 446 kts 260°
2026-04-15 15:18 45.46750 14.46407 36152 ft 446 kts 260°
2026-04-15 15:19 45.45597 14.37768 36146 ft 447 kts 260°
2026-04-15 15:19 45.44435 14.29060 36148 ft 448 kts 260°
2026-04-15 15:20 45.43265 14.20336 36143 ft 449 kts 260°
2026-04-15 15:20 45.42081 14.11602 36139 ft 450 kts 260°
2026-04-15 15:21 45.40884 14.02857 36123 ft 451 kts 260°
2026-04-15 15:21 45.39694 13.94148 36114 ft 452 kts 260°
2026-04-15 15:22 45.38502 13.85483 35830 ft 436 kts 260°
2026-04-15 15:22 45.37919 13.81291 35517 ft 429 kts 260°
2026-04-15 15:22 45.37343 13.77153 35157 ft 424 kts 260°
2026-04-15 15:23 45.36774 13.73058 34783 ft 420 kts 259°
2026-04-15 15:23 45.36212 13.69011 34396 ft 416 kts 259°
2026-04-15 15:23 45.35652 13.64995 33982 ft 413 kts 259°
2026-04-15 15:23 45.35101 13.61061 33540 ft 409 kts 259°
2026-04-15 15:24 45.34546 13.57114 33105 ft 405 kts 259°
2026-04-15 15:24 45.33996 13.53221 32709 ft 400 kts 259°
2026-04-15 15:24 45.33449 13.49366 32311 ft 396 kts 258°
2026-04-15 15:24 45.32909 13.45549 31934 ft 391 kts 258°
2026-04-15 15:25 45.32375 13.41780 31558 ft 387 kts 258°
2026-04-15 15:25 45.31846 13.38059 31200 ft 382 kts 258°
2026-04-15 15:25 45.31319 13.34373 30846 ft 378 kts 258°
2026-04-15 15:25 45.30802 13.30779 30506 ft 374 kts 257°
2026-04-15 15:26 45.30276 13.27129 30169 ft 370 kts 257°
2026-04-15 15:26 45.29770 13.23616 29762 ft 367 kts 257°
2026-04-15 15:26 45.29261 13.20075 29337 ft 365 kts 257°
2026-04-15 15:26 45.28754 13.16557 28917 ft 363 kts 257°
2026-04-15 15:27 45.28245 13.13057 28509 ft 362 kts 257°
2026-04-15 15:27 45.27735 13.09567 28099 ft 360 kts 258°
2026-04-15 15:27 45.27226 13.06087 27697 ft 359 kts 258°
2026-04-15 15:27 45.26729 13.02677 27303 ft 357 kts 258°
2026-04-15 15:28 45.26166 12.99257 26910 ft 355 kts 252°
2026-04-15 15:28 45.25330 12.95969 26503 ft 354 kts 249°
2026-04-15 15:28 45.24461 12.92714 26107 ft 352 kts 249°
2026-04-15 15:28 45.23597 12.89467 25706 ft 351 kts 250°
2026-04-15 15:29 45.22739 12.86243 25306 ft 349 kts 250°
2026-04-15 15:29 45.21883 12.83026 24903 ft 348 kts 250°
2026-04-15 15:29 45.21033 12.79827 24506 ft 346 kts 250°
2026-04-15 15:29 45.20185 12.76635 24115 ft 345 kts 250°
2026-04-15 15:30 45.19339 12.73462 23750 ft 343 kts 250°
2026-04-15 15:30 45.18540 12.70478 23366 ft 342 kts 250°
2026-04-15 15:30 45.17697 12.67337 22942 ft 341 kts 250°
2026-04-15 15:30 45.16856 12.64205 22534 ft 340 kts 250°
2026-04-15 15:31 45.16019 12.61090 22126 ft 338 kts 250°
2026-04-15 15:31 45.15183 12.57985 21729 ft 337 kts 249°
2026-04-15 15:31 45.14347 12.54879 21329 ft 336 kts 249°
2026-04-15 15:31 45.13513 12.51791 20936 ft 335 kts 249°
2026-04-15 15:32 45.12681 12.48707 20563 ft 334 kts 249°
2026-04-15 15:32 45.11851 12.45638 20177 ft 334 kts 249°
2026-04-15 15:32 45.11022 12.42577 19811 ft 333 kts 249°
2026-04-15 15:32 45.10203 12.39562 19455 ft 332 kts 249°
2026-04-15 15:33 45.09376 12.36520 19107 ft 331 kts 249°
2026-04-15 15:33 45.08552 12.33491 18752 ft 330 kts 249°
2026-04-15 15:33 45.07728 12.30460 18389 ft 330 kts 249°
2026-04-15 15:33 45.06848 12.27475 17992 ft 329 kts 242°
2026-04-15 15:34 45.05768 12.24633 17619 ft 327 kts 241°
2026-04-15 15:34 45.04689 12.21803 17252 ft 326 kts 241°
2026-04-15 15:34 45.03619 12.18991 16900 ft 324 kts 241°
2026-04-15 15:34 45.02564 12.16228 16552 ft 323 kts 241°
2026-04-15 15:35 45.01499 12.13442 16204 ft 321 kts 241°
2026-04-15 15:35 45.00437 12.10670 15867 ft 320 kts 241°
2026-04-15 15:35 44.99377 12.07914 15539 ft 319 kts 241°
2026-04-15 15:35 44.98319 12.05167 15218 ft 317 kts 240°
2026-04-15 15:36 44.97269 12.02442 14897 ft 316 kts 240°
2026-04-15 15:36 44.96219 11.99720 14580 ft 315 kts 241°
2026-04-15 15:36 44.95180 11.97021 14277 ft 313 kts 240°
2026-04-15 15:36 44.94137 11.94309 13947 ft 312 kts 240°
2026-04-15 15:37 44.92982 11.91733 13619 ft 309 kts 227°
2026-04-15 15:37 44.91471 11.89645 13291 ft 307 kts 222°
2026-04-15 15:37 44.89915 11.87584 13035 ft 308 kts 222°
2026-04-15 15:37 44.88351 11.85521 12776 ft 307 kts 222°
2026-04-15 15:38 44.86793 11.83471 12511 ft 306 kts 222°
2026-04-15 15:38 44.85235 11.81424 12258 ft 305 kts 221°
2026-04-15 15:38 44.83684 11.79384 12006 ft 305 kts 222°
2026-04-15 15:38 44.82137 11.77352 11756 ft 304 kts 222°
2026-04-15 15:39 44.80599 11.75332 11468 ft 302 kts 222°
2026-04-15 15:39 44.79064 11.73315 11154 ft 301 kts 222°
2026-04-15 15:39 44.77543 11.71313 10849 ft 299 kts 222°
2026-04-15 15:39 44.76043 11.69342 10541 ft 298 kts 222°
2026-04-15 15:40 44.74527 11.67357 10228 ft 297 kts 221°
2026-04-15 15:40 44.73017 11.65380 9939 ft 296 kts 221°
2026-04-15 15:40 44.71514 11.63417 9615 ft 294 kts 221°
2026-04-15 15:40 44.70017 11.61467 9291 ft 293 kts 221°
2026-04-15 15:41 44.68526 11.59528 8972 ft 292 kts 221°
2026-04-15 15:41 44.67042 11.57600 8654 ft 291 kts 221°
2026-04-15 15:41 44.65559 11.55670 8336 ft 290 kts 221°
2026-04-15 15:41 44.64084 11.53749 8018 ft 288 kts 221°
2026-04-15 15:42 44.62627 11.51888 7797 ft 283 kts 216°
2026-04-15 15:42 44.60922 11.50675 7669 ft 271 kts 191°
2026-04-15 15:42 44.59101 11.50514 7478 ft 257 kts 168°
2026-04-15 15:42 44.57446 11.51294 7032 ft 249 kts 146°
2026-04-15 15:43 44.56153 11.52840 6536 ft 243 kts 125°
2026-04-15 15:43 44.55315 11.54863 5999 ft 240 kts 114°
2026-04-15 15:43 44.54569 11.56967 5467 ft 240 kts 115°
2026-04-15 15:43 44.53821 11.59049 4995 ft 239 kts 115°
2026-04-15 15:44 44.53050 11.61101 4515 ft 238 kts 123°
2026-04-15 15:44 44.51811 11.62613 4019 ft 241 kts 154°
2026-04-15 15:44 44.50167 11.63023 3611 ft 244 kts 185°
2026-04-15 15:44 44.48587 11.62280 3156 ft 244 kts 207°
2026-04-15 15:45 44.47081 11.61188 2984 ft 251 kts 210°
2026-04-15 15:45 44.45713 11.59592 2982 ft 254 kts 231°
2026-04-15 15:45 44.44872 11.57522 2979 ft 237 kts 252°
2026-04-15 15:45 44.44592 11.55343 2982 ft 220 kts 271°
2026-04-15 15:46 44.44792 11.53310 3009 ft 202 kts 289°
2026-04-15 15:46 44.45314 11.51615 3001 ft 179 kts 299°
2026-04-15 15:46 44.45844 11.50155 2955 ft 160 kts 299°
2026-04-15 15:46 44.46331 11.48812 2986 ft 151 kts 300°
2026-04-15 15:47 44.46796 11.47532 2979 ft 149 kts 300°
2026-04-15 15:47 44.47262 11.46247 2966 ft 148 kts 300°
2026-04-15 15:47 44.47726 11.44969 2834 ft 147 kts 299°
2026-04-15 15:47 44.48186 11.43698 2649 ft 146 kts 299°
2026-04-15 15:48 44.48644 11.42434 2437 ft 145 kts 299°
2026-04-15 15:48 44.49100 11.41175 2205 ft 144 kts 299°
2026-04-15 15:48 44.49555 11.39918 1987 ft 144 kts 299°
2026-04-15 15:48 44.50011 11.38670 1740 ft 143 kts 298°
2026-04-15 15:49 44.50461 11.37431 1588 ft 143 kts 298°
2026-04-15 15:49 44.50910 11.36193 1432 ft 142 kts 299°
2026-04-15 15:49 44.51365 11.34956 1230 ft 142 kts 298°
2026-04-15 15:49 44.51791 11.33741 941 ft 140 kts 295°
2026-04-15 15:50 44.52229 11.32523 658 ft 136 kts 296°
2026-04-15 15:50 44.52654 11.31364 400 ft 135 kts 295°
2026-04-15 15:50 44.53068 11.30186 189 ft 134 kts 296°
2026-04-15 15:50 44.53460 11.29100 127 ft 83 kts 297°
2026-04-15 15:51 44.53595 11.28724 125 ft 35 kts 296°
2026-04-15 15:51 44.53705 11.28423 128 ft 34 kts 297°
2026-04-15 15:51 44.53772 11.28177 125 ft 15 kts 273°
2026-04-15 15:51 44.53731 11.28046 128 ft 15 kts 214°
2026-04-15 15:52 44.53632 11.28081 130 ft 17 kts 127°
2026-04-15 15:52 44.53572 11.28241 127 ft 20 kts 116°
2026-04-15 15:52 44.53505 11.28426 127 ft 23 kts 117°
2026-04-15 15:52 44.53430 11.28634 128 ft 25 kts 116°
2026-04-15 15:53 44.53347 11.28864 128 ft 22 kts 116°
2026-04-15 15:53 44.53281 11.29049 130 ft 23 kts 117°
2026-04-15 15:53 44.53206 11.29259 129 ft 23 kts 117°
2026-04-15 15:53 44.53160 11.29357 129 ft 10 kts 158°
2026-04-15 15:54 44.53102 11.29409 130 ft 12 kts 118°
2026-04-15 15:54 44.53064 11.29452 130 ft 7 kts 198°
2026-04-15 15:54 44.53036 11.29430 130 ft 1 kts 206°
2026-04-15 15:54 44.53031 11.29427 129 ft 0 kts 206°